Satellite: ISS
Catalog number: 25544
Epoch time:      08262.49137262
Element set:     277
Inclination:      051.6418 deg
RA of node:       257.8410 deg
Eccentricity:    0.0006802
Arg of perigee:   124.7476 deg
Mean anomaly:     014.0381 deg
Mean motion:   15.72120259 rev/day
Decay rate:      7.507e-05 rev/day^2
Epoch rev:           56321
Checksum:              282

Satellite: CO-58
Catalog number: 28895
Epoch time:      08261.72965043
Element set:    0123
Inclination:      098.0850 deg
RA of node:       153.4966 deg
Eccentricity:    0.0019005
Arg of perigee:   118.5294 deg
Mean anomaly:     241.7828 deg
Mean motion:   14.59696608 rev/day
Decay rate:       1.19e-06 rev/day^2
Epoch rev:           15398
Checksum:              346

Satellite: FALCON
Catalog number: 30776
Epoch time:      08261.50854476
Element set:    0412
Inclination:      035.4353 deg
RA of node:       313.5609 deg
Eccentricity:    0.0001157
Arg of perigee:   032.2213 deg
Mean anomaly:     327.8574 deg
Mean motion:   15.03051831 rev/day
Decay rate:       2.56e-06 rev/day^2
Epoch rev:           08404
Checksum:              264

Satellite: MAST
Catalog number: 31126
Epoch time:      08262.38626663
Element set:     421
Inclination:      098.0316 deg
RA of node:       323.0535 deg
Eccentricity:    0.0095351
Arg of perigee:   043.6899 deg
Mean anomaly:     317.1841 deg
Mean motion:   14.53444478 rev/day
Decay rate:       -7.7e-07 rev/day^2
Epoch rev:            7555
Checksum:              304

Satellite: CAPE1
Catalog number: 31130
Epoch time:      08262.63720210
Element set:     407
Inclination:      098.0326 deg
RA of node:       322.0920 deg
Eccentricity:    0.0103694
Arg of perigee:   046.5214 deg
Mean anomaly:     314.4527 deg
Mean motion:   14.51991989 rev/day
Decay rate:       1.28e-06 rev/day^2
Epoch rev:            7528
Checksum:              274

Satellite: COMPASS
Catalog number: 32787
Epoch time:      08261.71912001
Element set:    0156
Inclination:      097.9816 deg
RA of node:       321.3066 deg
Eccentricity:    0.0015535
Arg of perigee:   193.2469 deg
Mean anomaly:     166.8337 deg
Mean motion:   14.81459963 rev/day
Decay rate:        7.1e-07 rev/day^2
Epoch rev:           02110
Checksum:              297

Satellite: AAUSAT2
Catalog number: 32788
Epoch time:      08261.91124263
Element set:    0161
Inclination:      097.9805 deg
RA of node:       321.5152 deg
Eccentricity:    0.0015210
Arg of perigee:   192.2994 deg
Mean anomaly:     167.7841 deg
Mean motion:   14.81570322 rev/day
Decay rate:      -1.54e-06 rev/day^2
Epoch rev:           02113
Checksum:              279

Satellite: DO-64
Catalog number: 32789
Epoch time:      08262.73303867
Element set:     160
Inclination:      097.9837 deg
RA of node:       322.3689 deg
Eccentricity:    0.0015612
Arg of perigee:   189.2809 deg
Mean anomaly:     170.8115 deg
Mean motion:   14.81473517 rev/day
Decay rate:       3.85e-06 rev/day^2
Epoch rev:            2125
Checksum:              329

Satellite: CO-66
Catalog number: 32791
Epoch time:      08261.73275305
Element set:    0157
Inclination:      097.9832 deg
RA of node:       321.3393 deg
Eccentricity:    0.0015739
Arg of perigee:   191.2816 deg
Mean anomaly:     168.8046 deg
Mean motion:   14.81313914 rev/day
Decay rate:       1.18e-06 rev/day^2
Epoch rev:           02107
Checksum:              309

Satellite: RS-30
Catalog number: 32953
Epoch time:      08261.89287637
Element set:    0112
Inclination:      082.4966 deg
RA of node:       065.9301 deg
Eccentricity:    0.0019799
Arg of perigee:   054.4933 deg
Mean anomaly:     305.7997 deg
Mean motion:   12.42997489 rev/day
Decay rate:        1.0e-07 rev/day^2
Epoch rev:           01456
Checksum:              341

/EX



_______________________________________________
Via the Keps mailing list courtesy of AMSAT-NA
http://amsat.org/mailman/listinfo/keps

--- ViaMAIL!/WC v1.60d
 * Origin: Chowdanet (401-724-4410) telnet://chowdanet.com  (1:323/120)